Regional Weather Roundup
Issued by NWS Mt. Holly, NJ

Home | Current Version | Previous Version | Text Only | Print | Product List | Glossary On
Versions: 1 2 3 4 5 6 7 8 9 10 11 12 13 14 15 16 17 18 19 20 21 22 23 24 25 26 27 28
000
ASUS41 KPHI 230812
RWRPHI

REGIONAL WEATHER ROUNDUP
NATIONAL WEATHER SERVICE MOUNT HOLLY NJ
400 AM EDT MON OCT 23 2017

NOTE:  "FAIR" INDICATES FEW OR NO CLOUDS BELOW 12,000 FEET WITH NO
SIGNIFICANT WEATHER AND/OR OBSTRUCTIONS TO VISIBILITY.

 * = STATION DOES NOT REPORT PRECIPITATION (E.G. RAIN, SNOW, ETC.)
        OR FOG.

NJZ015>026-230900-
SOUTHERN NEW JERSEY

CITY           SKY/WX    TMP DP  RH WIND       PRES   REMARKS
POMONA         CLEAR     60  60 100 SE6       30.31S
WILDWOOD*      PTCLDY    65  64  97 SE6       30.31S
MILLVILLE      CLOUDY    65  64  97 CALM      30.29F
WRIGHTSTOWN    FOG       53  52  99 CALM      30.28F VSB 3/8
MOUNT HOLLY      N/A    N/A N/A N/A MISG      30.30F
TRENTON        CLOUDY    59  58  96 CALM      30.31F FOG

$$
NJZ001>014-230900-
NORTHERN NEW JERSEY

CITY           SKY/WX    TMP DP  RH WIND       PRES   REMARKS
SUSSEX         CLOUDY    50  49  96 CALM      30.33S
ANDOVER*         N/A     53  52  96 CALM      30.33S
MORRISTOWN     CLOUDY    52  52 100 CALM      30.33S
NEWARK         MOCLDY    63  61  93 VRB3      30.32F
TETERBORO      CLOUDY    58  53  84 NW3       30.32S
CALDWELL       CLOUDY    55  53  93 CALM      30.33S
SOMERVILLE     CLOUDY    52  50  93 CALM      30.31S
ALLAIRE*       MOCLDY    61  60  97 SE5       30.32F
TOMS RIVER*    FOG       48  48 100 CALM      30.32F VSB 1/4

$$
PAZ043-044-047-054-055-060>062-066>071-230900-
EASTERN PENNSYLVANIA

CITY           SKY/WX    TMP DP  RH WIND       PRES   REMARKS
PHILADELPHIA   FOG       61  60  97 NE5       30.31F VSB 1/2
NORTH PHILA    CLOUDY    63  59  87 CALM      30.32F
BLUE BELL*     CLOUDY    57  57 100 CALM      30.32F
DOYLESTOWN     CLOUDY    59  57  93 CALM      30.31F
QUAKERTOWN*    CLOUDY    55  54  94 CALM      30.32F
PERKASIE*      CLOUDY    57  57 100 CALM      30.32F FOG
POTTSTOWN      CLOUDY    57  55  93 NE3       30.32F
LANCASTER      FOG       54  54 100 E3        30.29S VSB 1/4
COATESVILLE    CLOUDY    59  59 100 CALM      30.31F FOG
READING        CLOUDY    51  51 100 N3        30.28F
ALLENTOWN      CLOUDY    59  52  77 E3        30.31F
MOUNT POCONO   MOCLDY    55  54  96 S8        30.32S
HAZLETON       CLOUDY    54  52  94 SE7       30.32F
LEHIGHTON      CLOUDY    46  46 100 CALM      30.32F
WILKES BARRE   CLOUDY    54  49  83 VRB3      30.30S

$$
DEZALL-MDZ008-012-015-019-020-230900-
DELAWARE AND EASTERN MARYLAND

CITY           SKY/WX    TMP DP  RH WIND       PRES   REMARKS
WILMINGTON     FOG       62  62 100 CALM      30.30F VSB 1/4
DOVER          CLOUDY    66  66 100 SE6       30.28F
GEORGETOWN     PTCLDY    62  61  96 SE3       30.29F FOG
EASTON         FOG       61  59  94 SE3       30.31F VSB 1/2
PATUXENT       PTCLDY    66  66 100 SE5       30.26F
OCEAN CITY     CLOUDY    67  66  97 SE6       30.29F
WALLOPS ISLAND CLOUDY    67  66  97 SE3       30.28F
SALISBURY      CLOUDY    61  61 100 E3        30.28F FOG

$$
PAZ001-021-NYZ056-072-MDZ011-DCZ001-230900-
OTHER NEARBY LOCATIONS

CITY           SKY/WX    TMP DP  RH WIND       PRES   REMARKS
HARRISBURG     CLOUDY    56  56 100 SE3       30.28S FOG
STATE COLLEGE  MOCLDY    57  49  75 CALM      30.25S
WILLIAMSPORT   CLOUDY    56  49  77 E6        30.25F
BINGHAMTON     MOCLDY    54  40  59 S8        30.26S
NEW YORK CITY  CLOUDY    62  60  93 S5        30.35F
BALTIMORE      CLOUDY    57  57 100 CALM      30.27F
WASHINGTON DC  CLOUDY    60  59  96 NE8       30.27F

$$




USA.gov is the U.S. government's official web portal to all federal, state and local government web resources and services.